Regional Weather Roundup
Issued by NWS

Home | Current Version | Previous Version | Graphics & Text | Print | Product List | Glossary On
Versions: 1 2 3 4 5 6 7 8 9 10 11 12 13 14 15 16 17 18 19 20 21 22 23 24 25 26 27 28 29 30 31 32 33 34 35 36 37 38 39 40 41 42 43 44 45 46 47 48 49 50
000
ASUS43 KMKX 041721
RWRWI

WISCONSIN REGIONAL WEATHER ROUNDUP
NATIONAL WEATHER SERVICE MILWAUKEE/SULLIVAN WI
1200 PM CDT SAT JUL 04 2015

NOTE: "FAIR" INDICATES FEW OR NO CLOUDS BELOW 12,000 FEET WITH NO
SIGNIFICANT WEATHER AND/OR OBSTRUCTIONS TO VISIBILITY.

WIZ001-002-006>008-014>016-023>028-041800-
NORTHWEST WISCONSIN

CITY           SKY/WX    TMP DP  RH WIND       PRES   REMARKS
SUPERIOR ARPT  SUNNY     67  60  78 NE8       29.97S
ASHLAND        SUNNY     73  65  75 N7        29.97S
HAYWARD        SUNNY     79  56  45 E3        29.96S HX  80
SIREN          MOSUNNY   80  53  38 CALM      29.95S HX  80
CUMBERLAND     MOSUNNY   77  59  53 CALM      29.97S
RICE LAKE      SUNNY     78  61  55 CALM      29.98S
CHETEK         SUNNY     77  66  67 MISG      29.96S
LADYSMITH      SUNNY     78  59  50 E3        29.99S HX  80
EAU CLAIRE     SUNNY     78  63  59 W3        29.95F HX  80
MENOMONIE      SUNNY     78  64  62 CALM      29.96S HAZE    HX  80
NEW RICHMOND   SUNNY     78  63  59 CALM      29.95F HAZE    HX  80
OSCEOLA        SUNNY     80  64  58 S3        29.97S HX  81
$$

WIZ003>005-009-010-017-018-041800-
NORTH CENTRAL WISCONSIN

CITY           SKY/WX    TMP DP  RH WIND       PRES   REMARKS
MANITOWISH WTR SUNNY     75  58  54 E5        29.99S
ARBOR VITAE    PTSUNNY   77  60  56 CALM      29.99S
WOODRUFF       PTSUNNY   77  60  56 CALM      29.99S
RHINELANDER    MOSUNNY   77  53  43 CALM      29.99F
EAGLE RIVER    MOSUNNY   75  55  50 SW6       29.99S
LAND O LAKES   MOSUNNY   77  54  44 S3        30.00F
PHILLIPS       PTSUNNY   78  56  47 SE6       29.98S
TOMAHAWK       SUNNY     76  59  55 SE3       29.99F
MEDFORD        MOSUNNY   75  61  62 CALM      29.99S
MERRILL        SUNNY     77  62  61 CALM      29.98F
$$

WIZ029-030-035-036-043>047-041800-
CENTRAL WISCONSIN

CITY           SKY/WX    TMP DP  RH WIND       PRES   REMARKS
WAUSAU         MOSUNNY   78  61  55 SW6       29.96S HX  80
MOSINEE        MOSUNNY   75  64  69 VRB5      29.99S
MARSHFIELD     SUNNY     76  61  59 CALM      29.98S
STEVENS POINT  MOSUNNY   75  61  62 SE3       29.98S
WAUPACA        SUNNY     80  62  54 SW5       29.98S HX  81
WAUTOMA        SUNNY     80  61  52 SW3       29.99R HX  81
WISC RAPIDS    SUNNY     77  60  55 S5        29.99S
CAMP DOUGLAS   MOSUNNY   78  65  63 VRB6      29.97F HX  80
$$

WIZ011>013-019>022-031-037>040-048>050-041800-
NORTHEAST WISCONSIN

CITY           SKY/WX    TMP DP  RH WIND       PRES   REMARKS
ANTIGO         MOSUNNY   75  62  63 CALM      29.99S
SHAWANO        SUNNY     77  63  62 NE6       29.97S
OCONTO         SUNNY     74  62  66 NE3       29.97S
STURGEON BAY   SUNNY     72  61  68 E5        30.01S
GREEN BAY      SUNNY     77  62  59 CALM      29.97S
MANITOWOC      SUNNY     73  63  70 MISG      29.98S
APPLETON       PTSUNNY   75  59  57 W5        29.98S
CLINTONVILLE   SUNNY     77  61  57 CALM      29.97S
OSHKOSH        MOSUNNY   77  63  61 E6        29.98R
$$

WIZ032>034-041-042-053>061-041800-
SOUTHWEST WISCONSIN

CITY           SKY/WX    TMP DP  RH WIND       PRES   REMARKS
LA CROSSE      SUNNY     79  61  53 S6        29.97S HX  80
SPARTA         SUNNY     79  56  44 W5        29.98S
VIROQUA        SUNNY     77  58  52 SW3       30.00S
BOSCOBEL       SUNNY     80  55  42 VRB5      29.99S HX  80
PRAIRIE DU CHI SUNNY     77  57  49 SE3       29.99S
PLATTEVILLE    SUNNY     77  57  50 SW7       30.01S
$$

WIZ056-057-062-063-064-067-068-041800-
SOUTH CENTRAL WISCONSIN

CITY           SKY/WX    TMP DP  RH WIND       PRES   REMARKS
REEDSBURG      SUNNY     77  61  57 S3        29.98S
BARABOO/DELLS  SUNNY     77  55  46 CALM      29.99S
LONE ROCK      SUNNY     78  57  48 S6        30.00S
MINERAL POINT  SUNNY     77  55  47 SW5       30.02S
MADISON        SUNNY     77  59  53 SW6       29.99S
MIDDLETON      SUNNY     79  56  46 SW3       30.00S
WATERTOWN      SUNNY     76  61  58 CALM      29.99S
MONROE         SUNNY     77  59  53 W7        30.01S
JANESVILLE     MOSUNNY   77  57  50 W8        30.00R
$$

WIZ051-052-058>065-066-070>072-041800-
SOUTHEAST WISCONSIN

CITY           SKY/WX    TMP DP  RH WIND       PRES   REMARKS
MILWAUKEE      MOSUNNY   79  58  48 VRB3      29.99S HX  80
WAUKESHA       SUNNY     75  57  53 SW7       30.01R
MILWAUKEE/TIMM SUNNY     79  54  41 MISG      30.00S
RACINE         SUNNY     77  60  55 SE8       30.01S
BURLINGTON     MOSUNNY   76  59  56 S5        30.01R
KENOSHA        SUNNY     77  59  53 SW6       30.01R
FOND DU LAC    MOSUNNY   78  61  55 VRB5      29.99R HX  80
SHEBOYGAN      SUNNY     78  61  55 SW5       29.98S HX  80
WEST BEND      SUNNY     77  57  50 SW3       29.99S
JUNEAU         SUNNY     75  60  58 SW5       30.01S
$$

LSZ147-162-041800-
LAKE SUPERIOR

STATION/POSITION TIME  TEMP    WIND        PRES    WAVE
                       AIR SEA DIR/SP/G            HT/PER
                 (UTC) (F)     (DEG/KT/KT) (MB)    (FT/S)
W MID LAKE BUOY  1650   42 39   50/  6/  6 1015.8S   0
DEVILS ISLAND    1700   58      80/  7/  7 1015.4F
SAXON HARBOR     1600   60        CALM     1014.9S
$$

LMZ867-665-643>646-041800-
LAKE MICHIGAN

STATION/POSITION TIME  TEMP    WIND        PRES    WAVE
                       AIR SEA DIR/SP/G            HT/PER
                 (UTC) (F)     (DEG/KT/KT) (MB)    (FT/S)
CHAMBERS ISLAND  1600   67      10/  7/  7 1015.2R
N MID LAKE BUOY  1650   54 45   CALM  /  2 1015.5S   1
NORTHPORT PIER   1600   64     120/  4/  4 1015.2R
SISTER BAY       1559   67     350/ 10/ 11   N/A
ALGOMA LAKESHORE 1610           70/ 12/ 14   N/A
KEWAUNEE LAKESHO 1600   65      40/  6/  8 1014.7R
SHEBOYGAN LAKESH 1700   66     140/  8/  8 1015.3R
PORT WASHINGTON  1600   69     160/  6/  8 1015.6S
ATWATER BUOY     1700   66 61  120/  6/  8 1016.8R
MILWAUKEE LAKESH 1700   69      80/  2/  4   N/A
KENOSHA   LAKESH 1700   68     170/  6/ 11 1015.6S
$$

TC  - TEMPERATURE IN CELSIUS
VSB - VISIBILITY IN STATUTE MILES
WCI - WIND CHILL INDEX
HX  - HEAT INDEX




USA.gov is the U.S. government's official web portal to all federal, state and local government web resources and services.